Tracking 17857 objects as of 1-October-2016
HD Live streaming from Space Station
objects crossing your sky now

IRIDIUM 18

Track IRIDIUM 18 now!
10-day predictions
IRIDIUM 18 is classified as:


NORAD ID: 24872
Int'l Code: 1997-034D
Perigee: 784.8 km
Apogee: 784.8 km
Inclination: 86.4 °
Period: 100.4 minutes
Semi major axis: 7155 km
RCS: 3.8649 m2 (large)
Launch date: July 9, 1997
Source: United States (US)
Launch site: AIR FORCE WESTERN TEST RANGE (AFWTR)
Your satellite tracking list
Your tracking list is empty





NASA's NSSDC Master Catalog

Two Line Element Set (TLE):
1 24872U 97034D   16274.51424345  .00000106  00000-0  30818-4 0  9995
2 24872  86.3956 130.6448 0002189  85.1812 274.9633 14.34222628  6692
Source of the keplerian elements: AFSPC

N2YO: 720